This is the latest recevied weather packets stored in our database for station/object IU1OLT-7. If no packets are shown the sender has not sent any weather packets the latest 10 day(s).
| Time | Temp. | Humidity | Pressure | Rain* | Wind** | Luminosity | Snow |
|---|---|---|---|---|---|---|---|
| 1787771338 | 26.11° C | 37% | 1023.2 hPa | - | - | - | - |
| 1787770438 | 23.89° C | 41% | 1023.4 hPa | - | - | - | - |
| 1787769538 | 24.44° C | 54% | 1023.5 hPa | - | - | - | - |
| 1787768683 | 25.56° C | 53% | 1023.7 hPa | - | - | - | - |
| 1787768638 | 25.56° C | 53% | 1023.7 hPa | - | - | - | - |
| 1787767738 | 25° C | 57% | 1023.8 hPa | - | - | - | - |
| 1787766838 | 24.44° C | 59% | 1024 hPa | - | - | - | - |
| 1787765938 | 24.44° C | 57% | 1023.8 hPa | - | - | - | - |
| 1787765038 | 25° C | 52% | 1023.8 hPa | - | - | - | - |
| 1787764138 | 25° C | 53% | 1023.4 hPa | - | - | - | - |
| 1787763238 | 25.56° C | 59% | 1023.6 hPa | - | - | - | - |
| 1787762338 | 27.22° C | 40% | 1023.2 hPa | - | - | - | - |
| 1787761438 | 30° C | 42% | 1023 hPa | - | - | - | - |
| 1787760538 | 27.78° C | 54% | 1023.2 hPa | - | - | - | - |
| 1787759638 | 26.11° C | 60% | 1023.6 hPa | - | - | - | - |
| 1787758738 | 23.89° C | 67% | 1023.7 hPa | - | - | - | - |
| 1787757838 | 27.22° C | 55% | 1023.8 hPa | - | - | - | - |
| 1787756938 | 28.33° C | 52% | 1023.9 hPa | - | - | - | - |
| 1787756038 | 27.78° C | 54% | 1023.9 hPa | - | - | - | - |
| 1787755138 | 30° C | 45% | 1023.9 hPa | - | - | - | - |
| 1787754238 | 30.56° C | 40% | 1024 hPa | - | - | - | - |
| 1787753337 | 32.22° C | 39% | 1023.7 hPa | - | - | - | - |
| 1787752436 | 31.67° C | 40% | 1023.6 hPa | - | - | - | - |
| 1787751537 | 31.67° C | 40% | 1023.6 hPa | - | - | - | - |
| 1787750637 | 34.44° C | 37% | 1023.6 hPa | - | - | - | - |
* Rain since midnight (hover to see other rain measurements)
** Current wind speed in m/s (hover to see current wind gust speed)